QPF
0.00 0.00 0.00 0.00 0.00 0.00 0.00 0.00 0.00 0.00 0.00 0.00 0.00 0.00 0.00 0.00 0.00 0.00 0.00 0.00 0.00 0.00 0.02 0.05 0.07 0.08 0.09 0.09 0.09 0.12 0.15 0.18 0.23 0.21 0.18 0.15 0.11 0.06 0.02 0.01 0.00 0.00 0.00 0.00
0.00 0.00 0.00 0.00 0.00 0.00 0.00 0.00 0.00 0.00 0.00 0.00 0.00 0.00 0.00 0.00 0.00 0.00 0.00 0.00 0.00 0.00 0.02 0.04 0.05 0.04 0.03 0.02 0.03 0.05 0.08 0.11 0.13 0.13 0.12 0.10 0.07 0.03 0.01 0.00 0.00 0.00 0.00 0.00
0.00 0.00 0.00 0.00 0.00 0.00 0.00 0.00 0.00 0.00 0.00 0.00 0.00 0.00 0.00 0.00 0.00 0.00 0.00 0.00 0.00 0.00 0.00 0.01 0.01 0.01 0.01 0.01 0.01 0.03 0.06 0.08 0.10 0.12 0.12 0.09 0.05 0.02 0.00 0.00 0.00 0.00 0.00 0.00
0.00 0.00 0.00 0.00 0.00 0.00 0.00 0.00 0.00 0.00 0.00 0.00 0.00 0.00 0.00 0.00 0.00 0.00 0.00 0.00 0.00 0.00 0.00 0.00 0.00 0.00 0.00 0.00 0.01 0.02 0.05 0.07 0.08 0.09 0.08 0.07 0.04 0.02 0.01 0.00 0.00 0.00 0.00 0.00
0.00 0.00 0.00 0.00 0.00 0.00 0.00 0.00 0.00 0.00 0.00 0.00 0.00 0.00 0.00 0.00 0.00 0.00 0.00 0.00 0.00 0.00 0.00 0.00 0.00 0.00 0.00 0.00 0.01 0.02 0.06 0.08 0.07 0.07 0.07 0.05 0.03 0.03 0.02 0.01 0.00 0.00 0.00 0.00
0.00 0.00 0.00 0.00 0.00 0.00 0.00 0.00 0.00 0.00 0.00 0.00 0.00 0.00 0.00 0.00 0.00 0.00 0.00 0.00 0.00 0.00 0.00 0.00 0.00 0.00 0.00 0.00 0.01 0.03 0.06 0.08 0.06 0.06 0.06 0.05 0.04 0.03 0.02 0.01 0.00 0.00 0.00 0.00
0.00 0.00 0.00 0.00 0.00 0.00 0.00 0.00 0.00 0.00 0.00 0.00 0.00 0.00 0.00 0.00 0.00 0.00 0.00 0.00 0.00 0.00 0.00 0.00 0.00 0.00 0.00 0.00 0.01 0.02 0.04 0.05 0.05 0.05 0.05 0.05 0.04 0.02 0.01 0.00 0.00 0.00 0.00 0.00
0.00 0.00 0.00 0.00 0.00 0.00 0.00 0.00 0.00 0.00 0.00 0.00 0.00 0.00 0.00 0.00 0.00 0.00 0.00 0.00 0.00 0.00 0.00 0.00 0.00 0.00 0.00 0.00 0.01 0.01 0.03 0.05 0.05 0.04 0.02 0.02 0.04 0.02 0.01 0.01 0.00 0.00 0.00 0.00
0.00 0.00 0.00 0.00 0.00 0.00 0.00 0.00 0.00 0.00 0.00 0.00 0.00 0.00 0.00 0.00 0.00 0.00 0.00 0.00 0.00 0.00 0.00 0.00 0.00 0.00 0.00 0.00 0.01 0.02 0.03 0.05 0.04 0.02 0.01 0.02 0.04 0.02 0.02 0.01 0.00 0.00 0.00 0.00
0.00 0.00 0.00 0.00 0.00 0.00 0.00 0.00 0.00 0.00 0.00 0.00 0.00 0.00 0.00 0.00 0.00 0.00 0.00 0.00 0.00 0.00 0.00 0.00 0.00 0.00 0.00 0.01 0.01 0.02 0.04 0.04 0.03 0.02 0.01 0.01 0.03 0.03 0.02 0.02 0.01 0.00 0.00 0.00
0.01 0.01 0.01 0.01 0.01 0.00 0.00 0.00 0.00 0.00 0.00 0.00 0.00 0.00 0.00 0.00 0.00 0.00 0.00 0.00 0.00 0.00 0.00 0.00 0.00 0.00 0.00 0.00 0.01 0.02 0.03 0.03 0.03 0.03 0.02 0.02 0.02 0.02 0.02 0.02 0.01 0.01 0.01 0.00
0.02 0.03 0.03 0.03 0.02 0.01 0.01 0.00 0.00 0.00 0.01 0.01 0.01 0.00 0.00 0.00 0.00 0.00 0.00 0.00 0.00 0.00 0.00 0.00 0.00 0.00 0.00 0.00 0.01 0.02 0.03 0.02 0.02 0.02 0.02 0.01 0.01 0.01 0.00 0.01 0.00 0.00 0.00 0.00
0.04 0.03 0.03 0.02 0.01 0.01 0.01 0.01 0.01 0.01 0.01 0.01 0.02 0.02 0.01 0.01 0.01 0.01 0.01 0.00 0.00 0.00 0.00 0.00 0.00 0.00 0.00 0.00 0.00 0.01 0.02 0.02 0.01 0.01 0.01 0.01 0.01 0.01 0.00 0.00 0.00 0.00 0.00 0.00
0.02 0.01 0.01 0.01 0.01 0.00 0.01 0.01 0.01 0.02 0.03 0.03 0.03 0.03 0.03 0.03 0.02 0.02 0.01 0.01 0.01 0.00 0.00 0.00 0.00 0.00 0.00 0.00 0.00 0.01 0.01 0.01 0.01 0.00 0.00 0.00 0.01 0.01 0.01 0.01 0.00 0.00 0.00 0.00
0.01 0.01 0.01 0.01 0.00 0.01 0.01 0.02 0.02 0.03 0.03 0.04 0.03 0.04 0.04 0.04 0.03 0.03 0.03 0.02 0.01 0.01 0.00 0.00 0.00 0.00 0.00 0.00 0.00 0.00 0.00 0.01 0.00 0.00 0.00 0.00 0.00 0.01 0.01 0.01 0.01 0.01 0.00 0.00
0.01 0.01 0.01 0.01 0.01 0.01 0.01 0.01 0.02 0.03 0.04 0.04 0.05 0.05 0.05 0.05 0.05 0.05 0.04 0.03 0.02 0.01 0.01 0.00 0.00 0.00 0.00 0.00 0.00 0.00 0.00 0.00 0.00 0.00 0.00 0.00 0.00 0.00 0.00 0.01 0.01 0.00 0.00 0.00
0.03 0.02 0.01 0.01 0.01 0.01 0.01 0.02 0.03 0.04 0.04 0.05 0.06 0.06 0.07 0.07 0.07 0.07 0.06 0.05 0.03 0.02 0.01 0.01 0.00 0.00 0.00 0.00 0.00 0.00 0.00 0.00 0.00 0.00 0.00 0.00 0.00 0.00 0.00 0.00 0.00 0.00 0.00 0.00
0.03 0.02 0.02 0.02 0.02 0.02 0.02 0.02 0.03 0.05 0.06 0.08 0.09 0.09 0.09 0.09 0.09 0.09 0.08 0.08 0.07 0.04 0.02 0.01 0.01 0.00 0.00 0.00 0.00 0.00 0.00 0.00 0.00 0.00 0.00 0.00 0.00 0.00 0.00 0.00 0.00 0.00 0.00 0.00
0.01 0.01 0.01 0.01 0.01 0.02 0.02 0.02 0.03 0.05 0.07 0.11 0.13 0.14 0.14 0.13 0.13 0.12 0.11 0.11 0.10 0.09 0.05 0.02 0.01 0.00 0.00 0.00 0.00 0.00 0.00 0.00 0.00 0.00 0.00 0.00 0.00 0.00 0.00 0.00 0.00 0.00 0.00 0.00
0.00 0.00 0.00 0.00 0.00 0.01 0.01 0.01 0.02 0.03 0.06 0.10 0.14 0.16 0.17 0.17 0.18 0.17 0.16 0.15 0.16 0.15 0.11 0.05 0.02 0.01 0.01 0.00 0.00 0.00 0.00 0.00 0.00 0.00 0.00 0.00 0.00 0.00 0.00 0.00 0.00 0.00 0.00 0.00
0.00 0.00 0.00 0.00 0.00 0.01 0.01 0.02 0.03 0.03 0.03 0.06 0.08 0.11 0.13 0.15 0.18 0.20 0.21 0.19 0.18 0.18 0.16 0.09 0.03 0.01 0.01 0.00 0.00 0.00 0.00 0.00 0.00 0.00 0.00 0.00 0.00 0.00 0.00 0.00 0.00 0.00 0.00 0.00
0.00 0.00 0.00 0.00 0.01 0.01 0.01 0.02 0.03 0.03 0.04 0.05 0.05 0.06 0.07 0.10 0.12 0.14 0.16 0.17 0.18 0.18 0.16 0.11 0.05 0.02 0.01 0.00 0.00 0.00 0.00 0.00 0.00 0.00 0.00 0.00 0.00 0.00 0.00 0.00 0.00 0.00 0.00 0.00
0.00 0.00 0.01 0.01 0.02 0.02 0.02 0.02 0.04 0.06 0.06 0.06 0.05 0.06 0.06 0.06 0.07 0.08 0.08 0.09 0.13 0.14 0.12 0.09 0.07 0.04 0.02 0.01 0.00 0.00 0.00 0.00 0.00 0.00 0.00 0.00 0.00 0.00 0.00 0.00 0.00 0.00 0.00 0.00
0.00 0.01 0.01 0.02 0.02 0.03 0.04 0.05 0.05 0.06 0.07 0.06 0.05 0.05 0.06 0.06 0.04 0.03 0.03 0.03 0.05 0.06 0.06 0.06 0.06 0.04 0.02 0.01 0.00 0.00 0.00 0.00 0.00 0.00 0.00 0.00 0.00 0.00 0.00 0.00 0.00 0.00 0.00 0.00
0.01 0.01 0.01 0.02 0.03 0.06 0.09 0.09 0.08 0.07 0.07 0.06 0.05 0.04 0.05 0.05 0.04 0.03 0.02 0.02 0.02 0.02 0.02 0.02 0.03 0.03 0.01 0.01 0.00 0.00 0.00 0.00 0.00 0.00 0.00 0.00 0.00 0.00 0.00 0.00 0.00 0.00 0.00 0.00
0.01 0.01 0.02 0.03 0.06 0.11 0.15 0.15 0.14 0.12 0.10 0.08 0.05 0.04 0.03 0.03 0.03 0.02 0.02 0.01 0.01 0.01 0.01 0.01 0.01 0.01 0.01 0.01 0.00 0.00 0.00 0.00 0.00 0.00 0.00 0.00 0.00 0.00 0.00 0.00 0.00 0.00 0.00 0.00
0.01 0.02 0.03 0.06 0.10 0.15 0.19 0.20 0.21 0.18 0.16 0.14 0.10 0.05 0.04 0.02 0.02 0.02 0.01 0.01 0.02 0.02 0.02 0.02 0.01 0.01 0.01 0.01 0.00 0.00 0.00 0.00 0.00 0.00 0.00 0.01 0.00 0.00 0.00 0.00 0.00 0.00 0.00 0.00
MSLP
1013.94 1013.80 1013.63 1013.44 1013.22 1012.98 1012.70 1012.37 1011.99 1011.56 1011.09 1010.59 1010.11 1009.67 1009.30 1009.03 1008.86 1008.79 1008.80 1008.89 1009.02 1009.16 1009.29 1009.41 1009.51 1009.59 1009.67 1009.75 1009.85 1009.97 1010.13 1010.31 1010.52 1010.75 1010.97 1011.18 1011.38 1011.55 1011.69 1011.80 1011.89 1011.97 1012.04 1012.11
1013.96 1013.71 1013.41 1013.06 1012.69 1012.31 1011.91 1011.50 1011.07 1010.64 1010.21 1009.79 1009.40 1009.06 1008.79 1008.61 1008.51 1008.49 1008.55 1008.66 1008.80 1008.94 1009.08 1009.20 1009.29 1009.36 1009.41 1009.47 1009.55 1009.65 1009.79 1009.97 1010.18 1010.43 1010.70 1010.98 1011.25 1011.51 1011.75 1011.95 1012.13 1012.28 1012.41 1012.52
1013.90 1013.58 1013.17 1012.71 1012.22 1011.72 1011.22 1010.74 1010.27 1009.83 1009.42 1009.05 1008.73 1008.47 1008.28 1008.16 1008.12 1008.15 1008.24 1008.38 1008.53 1008.69 1008.83 1008.95 1009.04 1009.10 1009.15 1009.18 1009.23 1009.30 1009.41 1009.57 1009.78 1010.04 1010.34 1010.67 1011.01 1011.36 1011.69 1011.99 1012.26 1012.49 1012.68 1012.85
1013.74 1013.37 1012.90 1012.37 1011.81 1011.24 1010.68 1010.14 1009.64 1009.19 1008.78 1008.43 1008.14 1007.92 1007.76 1007.68 1007.68 1007.73 1007.85 1008.00 1008.18 1008.36 1008.52 1008.66 1008.77 1008.85 1008.89 1008.92 1008.94 1008.99 1009.07 1009.20 1009.38 1009.63 1009.94 1010.30 1010.69 1011.10 1011.51 1011.90 1012.26 1012.57 1012.84 1013.06
1013.48 1013.10 1012.62 1012.08 1011.50 1010.90 1010.31 1009.74 1009.20 1008.72 1008.29 1007.92 1007.62 1007.39 1007.24 1007.16 1007.15 1007.22 1007.34 1007.51 1007.71 1007.93 1008.13 1008.32 1008.47 1008.58 1008.65 1008.69 1008.72 1008.75 1008.81 1008.91 1009.06 1009.29 1009.58 1009.94 1010.36 1010.80 1011.27 1011.73 1012.16 1012.55 1012.88 1013.16
1013.19 1012.84 1012.40 1011.89 1011.32 1010.73 1010.13 1009.54 1008.97 1008.45 1007.97 1007.55 1007.20 1006.93 1006.73 1006.61 1006.57 1006.61 1006.73 1006.91 1007.13 1007.39 1007.65 1007.90 1008.11 1008.29 1008.42 1008.51 1008.56 1008.60 1008.65 1008.72 1008.85 1009.04 1009.30 1009.64 1010.05 1010.51 1011.01 1011.51 1012.00 1012.45 1012.85 1013.19
1012.98 1012.69 1012.32 1011.87 1011.35 1010.77 1010.17 1009.56 1008.96 1008.38 1007.83 1007.34 1006.90 1006.54 1006.26 1006.06 1005.96 1005.96 1006.05 1006.22 1006.46 1006.75 1007.07 1007.39 1007.69 1007.96 1008.17 1008.33 1008.44 1008.51 1008.57 1008.64 1008.74 1008.90 1009.13 1009.44 1009.82 1010.27 1010.78 1011.31 1011.84 1012.34 1012.80 1013.20
1012.99 1012.78 1012.49 1012.10 1011.62 1011.07 1010.47 1009.83 1009.17 1008.52 1007.89 1007.30 1006.75 1006.28 1005.89 1005.59 1005.40 1005.32 1005.35 1005.49 1005.73 1006.05 1006.41 1006.80 1007.19 1007.55 1007.86 1008.11 1008.30 1008.44 1008.54 1008.62 1008.72 1008.86 1009.05 1009.32 1009.68 1010.11 1010.61 1011.15 1011.71 1012.26 1012.77 1013.22
1013.33 1013.20 1012.97 1012.63 1012.18 1011.63 1011.01 1010.33 1009.61 1008.88 1008.15 1007.44 1006.78 1006.19 1005.67 1005.26 1004.95 1004.77 1004.72 1004.81 1005.01 1005.32 1005.71 1006.15 1006.61 1007.05 1007.47 1007.82 1008.10 1008.32 1008.48 1008.61 1008.72 1008.86 1009.04 1009.28 1009.61 1010.02 1010.50 1011.05 1011.62 1012.21 1012.77 1013.27
1014.04 1013.96 1013.76 1013.43 1012.98 1012.41 1011.74 1011.00 1010.21 1009.39 1008.57 1007.76 1006.99 1006.27 1005.64 1005.10 1004.67 1004.38 1004.22 1004.21 1004.35 1004.61 1004.99 1005.44 1005.94 1006.46 1006.95 1007.40 1007.78 1008.09 1008.34 1008.53 1008.69 1008.84 1009.03 1009.27 1009.58 1009.97 1010.44 1010.98 1011.57 1012.18 1012.78 1013.33
1015.07 1015.00 1014.78 1014.42 1013.91 1013.28 1012.55 1011.74 1010.88 1009.98 1009.08 1008.19 1007.33 1006.52 1005.78 1005.13 1004.58 1004.16 1003.88 1003.76 1003.79 1003.97 1004.29 1004.71 1005.22 1005.76 1006.32 1006.85 1007.32 1007.72 1008.06 1008.33 1008.55 1008.75 1008.96 1009.21 1009.52 1009.91 1010.38 1010.92 1011.52 1012.14 1012.76 1013.35
1016.24 1016.12 1015.84 1015.39 1014.79 1014.08 1013.26 1012.38 1011.46 1010.52 1009.58 1008.64 1007.73 1006.87 1006.05 1005.31 1004.66 1004.12 1003.71 1003.45 1003.36 1003.42 1003.64 1004.00 1004.46 1005.00 1005.57 1006.15 1006.69 1007.18 1007.61 1007.96 1008.26 1008.53 1008.79 1009.07 1009.39 1009.79 1010.26 1010.80 1011.40 1012.03 1012.67 1013.28
1017.32 1017.09 1016.69 1016.12 1015.41 1014.59 1013.70 1012.77 1011.82 1010.86 1009.91 1008.98 1008.08 1007.20 1006.35 1005.56 1004.83 1004.19 1003.66 1003.27 1003.03 1002.96 1003.05 1003.30 1003.69 1004.18 1004.75 1005.35 1005.94 1006.49 1007.00 1007.43 1007.81 1008.15 1008.47 1008.79 1009.15 1009.56 1010.03 1010.58 1011.18 1011.82 1012.46 1013.08
1018.05 1017.68 1017.12 1016.41 1015.58 1014.67 1013.72 1012.76 1011.81 1010.89 1009.99 1009.11 1008.25 1007.41 1006.58 1005.77 1005.00 1004.28 1003.65 1003.13 1002.76 1002.55 1002.51 1002.64 1002.93 1003.36 1003.89 1004.48 1005.09 1005.69 1006.25 1006.76 1007.21 1007.62 1007.99 1008.37 1008.76 1009.19 1009.68 1010.22 1010.82 1011.45 1012.10 1012.71
1018.24 1017.70 1016.98 1016.13 1015.19 1014.21 1013.24 1012.29 1011.39 1010.53 1009.72 1008.93 1008.17 1007.40 1006.62 1005.83 1005.05 1004.30 1003.59 1002.98 1002.50 1002.16 1002.00 1002.01 1002.20 1002.55 1003.02 1003.58 1004.19 1004.81 1005.41 1005.97 1006.48 1006.95 1007.38 1007.80 1008.22 1008.68 1009.18 1009.73 1010.32 1010.94 1011.57 1012.18
1017.83 1017.11 1016.24 1015.27 1014.26 1013.25 1012.28 1011.38 1010.56 1009.81 1009.11 1008.45 1007.79 1007.12 1006.42 1005.68 1004.92 1004.16 1003.42 1002.75 1002.18 1001.76 1001.49 1001.41 1001.51 1001.78 1002.19 1002.71 1003.30 1003.92 1004.53 1005.12 1005.67 1006.18 1006.65 1007.10 1007.56 1008.03 1008.54 1009.10 1009.68 1010.30 1010.91 1011.50
1016.87 1015.99 1015.00 1013.96 1012.91 1011.91 1010.99 1010.16 1009.44 1008.80 1008.23 1007.69 1007.14 1006.57 1005.95 1005.28 1004.56 1003.82 1003.08 1002.38 1001.78 1001.30 1000.98 1000.84 1000.87 1001.08 1001.43 1001.90 1002.46 1003.06 1003.66 1004.25 1004.82 1005.34 1005.84 1006.32 1006.79 1007.29 1007.81 1008.36 1008.94 1009.54 1010.14 1010.71
1015.52 1014.53 1013.47 1012.39 1011.36 1010.40 1009.55 1008.81 1008.19 1007.66 1007.19 1006.75 1006.30 1005.81 1005.26 1004.65 1003.98 1003.27 1002.56 1001.88 1001.28 1000.80 1000.46 1000.28 1000.28 1000.44 1000.75 1001.18 1001.69 1002.26 1002.83 1003.41 1003.96 1004.49 1004.99 1005.48 1005.97 1006.47 1007.00 1007.55 1008.12 1008.71 1009.29 1009.83
1014.02 1012.97 1011.90 1010.84 1009.84 1008.95 1008.18 1007.53 1007.00 1006.54 1006.14 1005.76 1005.36 1004.92 1004.41 1003.84 1003.21 1002.55 1001.89 1001.25 1000.69 1000.24 999.93 999.76 999.75 999.90 1000.17 1000.56 1001.03 1001.54 1002.08 1002.62 1003.14 1003.65 1004.15 1004.63 1005.12 1005.63 1006.15 1006.70 1007.26 1007.83 1008.39 1008.91
1012.61 1011.55 1010.50 1009.49 1008.57 1007.76 1007.06 1006.48 1005.99 1005.57 1005.18 1004.81 1004.41 1003.97 1003.47 1002.92 1002.33 1001.71 1001.11 1000.54 1000.05 999.67 999.40 999.28 999.29 999.43 999.68 1000.03 1000.45 1000.91 1001.39 1001.88 1002.36 1002.84 1003.32 1003.79 1004.28 1004.78 1005.31 1005.85 1006.40 1006.95 1007.48 1007.97
1011.42 1010.41 1009.42 1008.49 1007.65 1006.90 1006.26 1005.70 1005.22 1004.78 1004.36 1003.95 1003.50 1003.02 1002.50 1001.95 1001.39 1000.82 1000.28 999.80 999.40 999.09 998.90 998.83 998.87 999.02 999.26 999.58 999.94 1000.34 1000.76 1001.19 1001.62 1002.06 1002.51 1002.98 1003.46 1003.96 1004.47 1005.00 1005.54 1006.06 1006.56 1007.02
1010.54 1009.59 1008.68 1007.83 1007.06 1006.37 1005.75 1005.18 1004.66 1004.16 1003.67 1003.16 1002.64 1002.09 1001.54 1000.97 1000.42 999.91 999.44 999.05 998.74 998.53 998.42 998.41 998.49 998.65 998.88 999.15 999.46 999.80 1000.15 1000.52 1000.90 1001.30 1001.73 1002.17 1002.65 1003.14 1003.66 1004.18 1004.70 1005.20 1005.66 1006.08
1009.91 1009.04 1008.21 1007.43 1006.71 1006.04 1005.41 1004.80 1004.21 1003.62 1003.01 1002.40 1001.79 1001.17 1000.56 999.99 999.46 998.99 998.60 998.30 998.09 997.97 997.95 998.00 998.11 998.28 998.48 998.71 998.97 999.24 999.52 999.83 1000.16 1000.53 1000.93 1001.36 1001.83 1002.33 1002.85 1003.36 1003.87 1004.35 1004.78 1005.16
1009.45 1008.64 1007.88 1007.15 1006.46 1005.78 1005.11 1004.43 1003.74 1003.04 1002.32 1001.60 1000.89 1000.20 999.56 998.98 998.47 998.06 997.75 997.54 997.43 997.40 997.44 997.54 997.67 997.84 998.01 998.20 998.39 998.60 998.82 999.07 999.36 999.70 1000.08 1000.52 1000.99 1001.50 1002.02 1002.54 1003.04 1003.50 1003.91 1004.25
1009.04 1008.29 1007.57 1006.86 1006.16 1005.44 1004.71 1003.94 1003.15 1002.34 1001.52 1000.70 999.91 999.17 998.50 997.93 997.47 997.12 996.88 996.76 996.73 996.77 996.86 996.99 997.14 997.28 997.42 997.56 997.69 997.84 998.01 998.21 998.47 998.78 999.16 999.60 1000.09 1000.62 1001.16 1001.69 1002.19 1002.65 1003.05 1003.38
1008.61 1007.89 1007.18 1006.47 1005.73 1004.96 1004.15 1003.29 1002.40 1001.48 1000.57 999.67 998.83 998.06 997.40 996.85 996.43 996.15 995.98 995.93 995.96 996.05 996.18 996.32 996.46 996.58 996.68 996.76 996.84 996.93 997.05 997.23 997.46 997.77 998.16 998.61 999.13 999.68 1000.25 1000.80 1001.32 1001.80 1002.20 1002.54
1008.16 1007.45 1006.72 1005.97 1005.18 1004.34 1003.44 1002.49 1001.50 1000.50 999.51 998.57 997.69 996.92 996.27 995.76 995.39 995.16 995.05 995.05 995.12 995.25 995.39 995.52 995.64 995.72 995.78 995.81 995.85 995.90 995.99 996.14 996.36 996.68 997.08 997.56 998.10 998.69 999.29 999.88 1000.44 1000.94 1001.38 1001.75
Thickness
5712 5715 5712 5707 5704 5703 5695 5690 5683 5689 5692 5698 5699 5697 5696 5692 5688 5685 5682 5678 5674 5669 5665 5659 5654 5649 5644 5640 5635 5630 5626 5622 5618 5616 5613 5611 5610 5610 5612 5614 5617 5618 5620 5622
5703 5708 5709 5703 5704 5702 5699 5698 5693 5690 5690 5701 5700 5695 5688 5684 5680 5677 5676 5674 5670 5665 5660 5654 5649 5645 5641 5636 5633 5629 5624 5621 5617 5614 5612 5608 5606 5606 5607 5608 5610 5612 5613 5614
5695 5707 5699 5693 5706 5704 5702 5703 5697 5687 5692 5698 5691 5686 5682 5679 5676 5673 5672 5669 5665 5661 5656 5651 5647 5642 5638 5634 5630 5627 5624 5621 5618 5614 5610 5607 5605 5604 5604 5604 5605 5605 5605 5605
5693 5691 5676 5704 5716 5707 5698 5699 5700 5696 5695 5692 5688 5686 5681 5677 5672 5669 5668 5665 5662 5658 5654 5650 5645 5640 5636 5633 5629 5626 5623 5621 5619 5615 5610 5606 5604 5603 5601 5601 5600 5599 5598 5597
5686 5682 5688 5702 5705 5699 5688 5687 5696 5691 5689 5687 5687 5679 5679 5680 5673 5667 5665 5662 5659 5655 5652 5647 5643 5638 5633 5630 5628 5625 5623 5620 5619 5615 5610 5606 5603 5600 5598 5596 5595 5594 5593 5591
5679 5665 5667 5688 5694 5693 5682 5674 5689 5684 5678 5677 5674 5665 5673 5678 5672 5666 5662 5658 5654 5651 5648 5643 5640 5636 5630 5628 5626 5624 5623 5620 5618 5615 5610 5607 5603 5599 5596 5593 5592 5590 5587 5585
5671 5666 5678 5689 5686 5682 5660 5664 5672 5671 5669 5668 5666 5665 5671 5671 5667 5663 5658 5654 5650 5646 5642 5639 5637 5632 5628 5626 5625 5624 5622 5618 5616 5613 5609 5605 5601 5597 5593 5591 5588 5585 5581 5579
5665 5656 5663 5676 5669 5654 5649 5658 5660 5661 5662 5663 5664 5667 5668 5666 5663 5658 5654 5650 5646 5641 5638 5636 5633 5628 5625 5624 5624 5622 5619 5615 5613 5610 5608 5604 5599 5595 5592 5588 5584 5581 5578 5576
5660 5659 5664 5661 5653 5650 5649 5648 5651 5653 5656 5658 5658 5659 5661 5660 5659 5656 5652 5648 5644 5639 5635 5632 5629 5626 5623 5623 5622 5619 5616 5613 5610 5608 5606 5602 5598 5594 5590 5586 5586 5582 5579 5576
5650 5653 5649 5644 5639 5635 5633 5634 5639 5642 5646 5648 5649 5652 5653 5653 5653 5652 5649 5645 5641 5637 5633 5629 5627 5624 5622 5621 5619 5616 5613 5610 5608 5605 5603 5600 5597 5594 5591 5588 5586 5582 5579 5575
5634 5630 5623 5621 5612 5611 5615 5618 5622 5627 5630 5632 5635 5638 5640 5643 5645 5645 5644 5642 5638 5634 5631 5628 5625 5621 5620 5618 5615 5613 5610 5608 5606 5604 5602 5598 5596 5593 5591 5588 5587 5581 5579 5574
5600 5588 5587 5587 5587 5590 5592 5596 5600 5603 5607 5611 5613 5617 5622 5627 5631 5635 5636 5636 5633 5631 5629 5627 5623 5619 5617 5615 5612 5610 5607 5605 5604 5602 5599 5596 5593 5588 5577 5579 5575 5572 5570 5570
5568 5568 5569 5567 5569 5571 5573 5577 5581 5583 5585 5588 5592 5595 5600 5605 5612 5618 5624 5627 5628 5628 5627 5624 5621 5617 5615 5612 5609 5606 5604 5603 5602 5600 5597 5594 5592 5588 5581 5570 5564 5562 5561 5559
5555 5554 5553 5552 5553 5555 5557 5560 5563 5566 5569 5571 5574 5577 5580 5586 5592 5598 5607 5614 5619 5621 5621 5620 5618 5615 5612 5609 5605 5603 5601 5598 5597 5596 5595 5592 5590 5587 5583 5577 5569 5563 5554 5550
5544 5541 5538 5539 5540 5540 5540 5542 5546 5550 5553 5556 5560 5562 5564 5568 5573 5579 5588 5599 5607 5612 5615 5616 5614 5612 5610 5606 5602 5599 5598 5597 5593 5594 5592 5590 5588 5585 5583 5578 5574 5569 5562 5549
5534 5531 5529 5527 5526 5526 5525 5525 5526 5531 5535 5540 5544 5547 5550 5554 5558 5564 5572 5580 5591 5600 5608 5611 5611 5611 5608 5604 5599 5596 5594 5592 5589 5589 5588 5586 5584 5582 5579 5576 5574 5570 5566 5559
5522 5523 5522 5519 5516 5513 5510 5507 5506 5509 5514 5519 5525 5530 5535 5541 5547 5552 5558 5565 5575 5586 5597 5604 5607 5607 5605 5601 5598 5596 5593 5588 5581 5583 5584 5583 5581 5579 5577 5575 5573 5570 5568 5564
5514 5510 5507 5502 5500 5498 5497 5495 5493 5492 5494 5499 5506 5513 5520 5527 5535 5541 5545 5551 5561 5573 5585 5595 5600 5602 5601 5599 5596 5596 5593 5589 5582 5581 5582 5580 5578 5576 5575 5573 5572 5569 5566 5561
5508 5502 5498 5493 5489 5485 5484 5484 5483 5482 5482 5483 5488 5495 5503 5513 5521 5529 5534 5540 5548 5558 5571 5582 5590 5595 5596 5596 5594 5592 5591 5589 5583 5581 5580 5576 5573 5574 5573 5572 5570 5568 5566 5562
5501 5496 5491 5487 5484 5480 5477 5476 5475 5474 5475 5475 5477 5482 5489 5499 5508 5518 5525 5530 5536 5544 5556 5567 5578 5586 5591 5592 5589 5591 5590 5587 5585 5583 5580 5578 5574 5573 5572 5571 5569 5567 5565 5563
5491 5488 5484 5481 5479 5476 5473 5471 5469 5468 5469 5468 5469 5474 5481 5489 5498 5507 5515 5523 5530 5535 5543 5553 5565 5577 5584 5588 5583 5590 5590 5588 5586 5584 5582 5579 5576 5573 5572 5570 5568 5566 5565 5563
5483 5482 5480 5478 5476 5475 5472 5468 5466 5464 5464 5465 5467 5470 5475 5481 5489 5499 5509 5516 5524 5527 5534 5545 5557 5567 5577 5580 5581 5587 5589 5589 5587 5585 5583 5581 5578 5576 5573 5571 5568 5566 5564 5563
5477 5477 5477 5476 5474 5472 5470 5466 5463 5460 5460 5461 5464 5467 5471 5475 5481 5490 5503 5513 5519 5524 5529 5539 5548 5555 5563 5571 5579 5583 5587 5588 5587 5586 5585 5583 5581 5578 5576 5572 5570 5567 5565 5563
5474 5474 5474 5473 5471 5468 5465 5463 5461 5459 5459 5461 5463 5465 5467 5472 5479 5487 5497 5507 5513 5519 5528 5535 5540 5548 5552 5566 5576 5581 5585 5587 5588 5587 5586 5585 5583 5581 5578 5575 5572 5569 5567 5564
5472 5472 5472 5470 5467 5463 5461 5460 5461 5460 5460 5462 5464 5466 5467 5471 5476 5483 5492 5502 5511 5517 5529 5536 5539 5544 5552 5565 5575 5581 5585 5587 5589 5588 5586 5586 5585 5583 5581 5578 5574 5572 5569 5567
5472 5472 5472 5469 5465 5462 5461 5460 5460 5462 5462 5464 5466 5468 5469 5472 5476 5482 5489 5500 5510 5518 5528 5538 5546 5549 5557 5567 5575 5581 5585 5586 5585 5585 5586 5585 5585 5584 5582 5580 5576 5574 5571 5568
5476 5476 5475 5473 5470 5466 5464 5463 5465 5467 5469 5470 5472 5472 5473 5475 5478 5483 5491 5500 5510 5521 5532 5541 5549 5556 5563 5570 5576 5581 5584 5586 5587 5586 5585 5585 5583 5582 5582 5580 5578 5575 5571 5569